Theta_e
348 351 356 358 358 358 357 359 361 363 365 358 360 362 363 368 367 369 369 369 369 364 360 358 355 355 355 355 356 356 354 359 359 352 351 357 355 355 357 357 359 357 358 357 354 354 353 353 354 354 355 355 356 356 355 356 356 355 354 353 352 351 354 351 349 350 350 350 349 348 347 346 346 347 350 352 352 350 349 348 350 352 353 352 353 353 352 352 351 350 351 350 351 352 349 348 350
351 356 359 359 356 358 363 362 362 361 360 357 361 364 365 370 368 369 369 369 368 361 360 358 356 356 354 355 354 356 355 354 354 354 354 353 354 356 357 358 358 358 358 357 356 355 354 353 353 354 354 354 355 355 355 355 356 355 355 354 353 353 354 350 350 350 349 349 348 349 351 350 349 350 352 353 352 349 348 350 352 353 353 351 352 353 351 351 351 351 350 350 349 351 351 350 350
356 358 357 357 357 358 364 364 360 356 354 356 362 368 368 371 370 368 369 368 365 358 358 357 359 357 354 357 355 358 357 352 350 351 351 352 355 355 358 358 358 358 358 357 357 357 355 352 353 354 354 354 355 354 354 355 356 355 355 354 353 353 353 351 351 350 348 348 349 351 352 351 351 351 351 352 351 350 350 352 353 353 352 352 352 352 352 351 350 351 350 350 350 351 352 351 350
356 359 356 358 361 361 366 367 364 357 351 352 360 370 370 369 370 368 368 364 360 356 357 360 360 357 358 362 358 355 355 351 351 351 351 352 353 354 357 358 358 356 357 357 357 357 353 351 353 354 355 354 355 356 355 355 356 355 354 353 353 353 352 351 350 349 347 348 349 351 351 350 351 352 351 352 350 350 351 351 351 352 352 352 352 352 352 351 350 351 350 350 350 351 352 351 350
355 358 356 358 365 364 366 367 368 360 353 355 358 367 369 366 369 369 368 362 359 357 358 361 360 357 359 362 360 356 352 349 351 351 352 352 351 353 356 357 357 355 356 356 358 356 351 349 352 353 354 355 356 356 355 355 354 354 354 353 353 352 351 350 348 348 347 349 350 351 351 351 352 352 352 351 350 350 350 351 352 352 352 352 352 353 352 352 352 351 351 350 350 351 351 351 350
356 358 356 359 364 364 364 362 362 359 360 366 362 366 368 365 369 369 369 365 359 358 358 361 360 359 360 359 358 356 350 349 350 351 350 351 351 352 355 356 355 355 357 357 357 354 350 349 351 352 354 354 356 356 355 355 353 354 355 353 352 350 349 348 348 347 348 350 352 352 352 352 351 350 350 350 351 352 352 352 353 353 353 353 352 352 352 352 352 352 351 351 351 351 351 351 350
357 360 361 363 364 365 365 359 359 361 363 367 366 368 367 366 369 368 370 369 364 362 360 360 358 360 363 359 357 354 351 352 350 350 351 350 350 351 353 355 355 357 358 358 357 354 350 350 350 351 352 353 354 354 354 353 351 352 353 351 350 349 349 348 348 348 350 352 352 352 352 351 350 350 351 351 352 353 354 354 354 354 353 353 352 351 352 353 353 352 352 351 351 351 352 352 351
357 361 364 365 369 368 366 362 363 365 364 365 367 366 366 368 367 367 369 368 367 366 364 359 358 365 364 361 362 357 350 352 350 350 351 349 350 350 352 354 357 358 358 358 357 353 350 349 349 349 350 351 352 352 350 348 349 350 351 351 352 352 351 351 351 351 351 352 352 351 351 351 351 352 352 353 354 354 354 354 355 355 354 353 353 352 353 353 353 353 352 351 350 351 352 353 352
358 361 364 365 368 366 362 363 364 365 366 365 365 364 365 367 365 366 367 367 367 366 365 359 359 365 365 363 363 360 354 351 351 351 350 350 350 350 352 355 359 359 358 358 354 349 348 349 349 348 349 350 350 349 347 347 348 350 352 353 354 354 353 353 353 353 352 352 352 351 351 351 351 352 353 354 354 354 354 355 355 355 355 353 354 353 352 353 352 352 352 351 351 352 353 353 353
361 362 364 367 363 358 356 360 361 365 368 366 366 365 365 366 365 365 365 365 365 366 365 360 361 364 365 366 364 362 359 349 350 351 350 350 350 350 353 354 357 360 359 357 353 348 348 349 348 348 348 348 348 348 348 349 350 352 353 353 354 354 353 352 352 351 352 352 352 352 352 352 352 352 353 355 355 354 353 354 354 354 354 353 355 354 352 352 351 352 352 352 352 353 353 352 353
364 362 362 365 353 348 351 355 361 367 368 366 366 366 366 366 363 363 365 366 366 367 365 362 365 365 366 367 363 363 358 349 351 351 350 350 350 351 352 354 356 359 359 357 355 352 347 347 348 348 348 347 348 348 349 350 352 353 353 353 352 353 353 351 351 351 351 351 352 352 352 352 352 353 354 355 354 353 351 351 352 352 352 351 354 354 352 352 352 352 352 352 353 352 352 351 353
365 365 364 363 350 350 356 356 362 368 367 367 367 364 365 365 362 364 367 366 366 367 366 365 365 363 367 367 362 361 355 350 351 349 350 350 350 351 351 353 355 357 358 357 357 354 350 348 348 347 348 348 349 350 350 351 352 352 352 352 351 351 351 351 351 352 352 351 352 352 351 352 352 353 354 353 353 351 350 350 350 350 350 350 352 353 352 352 352 352 351 352 352 352 351 352 353
361 366 364 360 357 362 361 358 364 368 366 367 366 362 363 363 362 364 366 365 366 368 366 363 361 362 367 367 361 361 357 351 351 349 349 350 350 350 350 351 353 355 358 359 358 357 355 353 350 349 349 350 351 352 352 352 353 352 352 352 351 352 352 352 352 352 352 352 352 351 351 352 352 353 353 352 352 351 349 349 348 348 349 349 351 353 352 351 352 352 352 352 352 352 352 352 353
357 362 365 361 361 366 362 360 363 362 363 366 364 362 362 362 360 362 365 366 366 366 364 361 359 362 366 366 363 361 359 351 350 349 349 350 350 349 349 350 352 354 356 358 358 359 359 357 357 354 351 352 352 352 353 353 353 353 352 352 352 352 353 353 352 352 351 352 352 351 351 351 352 354 353 352 350 349 347 345 345 346 348 349 350 352 352 351 352 352 353 353 353 352 352 353 354
355 358 366 363 356 357 359 363 362 359 362 365 364 362 363 362 361 363 366 366 366 362 361 361 359 362 364 365 364 361 358 351 350 350 350 349 349 349 348 349 350 352 354 356 358 359 359 359 360 357 354 355 354 353 353 352 352 353 353 353 352 352 352 352 351 351 351 351 352 352 353 354 355 356 353 351 349 346 344 343 344 347 350 352 351 351 351 351 353 353 353 353 352 352 354 354 354
352 358 362 357 350 349 353 362 363 360 362 365 362 361 364 364 362 365 365 364 365 362 361 363 361 362 362 362 361 358 355 351 350 350 350 349 349 349 349 349 349 350 352 355 357 358 359 360 360 359 358 359 357 356 356 353 351 352 352 352 351 351 351 351 351 351 352 351 351 352 353 355 357 357 356 354 350 347 346 345 347 350 350 351 350 350 350 350 352 354 354 353 352 353 355 355 354
350 357 358 350 348 348 352 362 361 359 363 364 362 361 364 365 363 364 363 362 365 363 361 361 361 360 360 361 359 357 355 352 351 351 350 350 350 350 349 349 349 350 351 354 357 357 359 359 359 359 358 359 359 358 359 357 353 351 352 352 352 352 351 353 354 353 351 350 351 352 353 356 358 359 359 358 355 351 349 350 352 350 347 346 347 348 349 352 354 356 356 355 355 356 356 355 354
353 357 351 345 350 353 354 362 359 361 365 363 361 361 362 364 364 363 362 362 363 361 360 360 361 360 360 361 359 356 354 352 351 351 351 350 350 351 350 350 350 351 351 353 355 355 357 357 358 358 355 357 359 358 359 360 357 352 353 354 352 351 352 354 354 353 353 354 356 356 355 358 359 359 358 359 359 356 355 357 355 351 348 347 349 349 351 355 357 357 356 356 356 356 355 354 353
353 356 349 347 357 355 353 358 357 363 364 363 363 361 361 363 363 362 364 364 362 360 360 361 362 362 361 360 357 356 354 354 353 351 350 349 350 351 351 352 351 351 351 352 353 353 354 355 355 354 353 356 357 357 358 359 358 353 355 358 354 354 356 355 353 356 358 359 361 360 359 360 360 358 357 358 358 358 358 357 355 353 353 354 354 354 356 357 357 355 356 355 355 354 353 353 352
348 353 350 352 357 354 352 354 356 361 361 363 362 360 362 363 362 362 364 364 363 363 360 362 364 362 360 358 356 355 355 354 353 352 349 349 349 349 349 351 351 350 351 351 352 351 352 353 352 350 352 356 356 358 357 358 358 356 358 361 359 359 360 359 358 360 362 361 361 359 358 359 358 357 357 357 355 355 355 353 352 355 357 357 357 358 358 356 354 355 355 354 353 354 354 354 353
344 349 350 350 352 353 351 352 353 355 356 360 361 360 363 361 361 363 363 363 364 365 361 361 364 361 359 357 356 355 355 355 354 352 349 350 349 347 348 348 349 350 349 350 351 350 351 351 350 350 352 355 356 357 356 356 359 358 359 360 360 360 360 361 361 361 362 362 362 359 357 359 357 354 355 356 357 354 354 354 353 355 357 357 355 356 358 355 354 354 354 353 354 354 354 354 353
345 347 349 349 351 352 351 350 352 354 355 361 362 362 361 359 360 360 362 365 365 364 361 360 360 360 359 357 356 356 356 356 355 353 351 351 348 346 346 346 346 346 348 348 348 349 349 348 349 349 351 354 356 356 356 356 358 357 357 358 358 358 358 360 361 361 362 361 362 361 359 359 356 354 353 355 357 356 355 355 353 354 354 354 353 353 355 355 355 355 354 354 356 356 355 356 355
348 347 347 349 348 350 351 350 353 356 358 362 363 360 357 359 363 360 359 362 361 359 358 356 357 359 358 357 356 357 357 356 356 356 353 351 350 347 345 345 344 344 346 347 346 348 347 346 347 348 349 352 355 356 356 356 356 355 354 356 357 357 357 358 359 359 360 361 361 360 359 357 354 353 352 353 356 356 355 354 352 353 352 352 353 353 353 355 356 356 356 357 356 356 357 357 355
347 346 348 348 347 348 349 352 357 358 358 359 359 357 360 363 364 361 356 357 355 355 354 352 354 357 358 356 356 356 357 357 357 357 355 352 350 348 346 345 344 344 344 345 345 347 346 345 346 348 348 350 354 356 355 356 355 353 352 354 355 355 356 357 357 358 358 359 359 358 357 355 353 352 352 352 354 353 352 352 351 352 352 352 352 353 353 355 356 357 358 358 357 356 356 355 353
345 347 348 346 347 348 349 353 357 356 355 357 357 359 362 360 362 361 357 355 352 353 351 350 353 355 356 355 356 357 357 358 359 358 356 353 350 349 348 345 344 344 342 344 345 345 345 345 345 347 349 349 352 354 354 354 354 354 352 353 354 354 354 355 355 355 354 355 356 356 355 353 351 351 351 351 352 351 350 350 349 351 351 351 352 352 351 352 354 358 359 358 357 357 355 353 352
345 346 345 345 346 348 351 352 353 353 352 356 358 360 361 357 359 361 357 356 353 352 351 351 353 353 355 355 357 357 357 359 359 358 356 352 352 351 349 347 346 342 341 342 344 344 342 343 344 345 348 349 350 352 352 353 353 353 353 353 354 354 353 353 352 353 353 352 353 355 354 352 350 351 351 351 351 350 349 350 350 351 351 349 350 351 351 352 354 358 359 357 357 357 355 354 354
343 343 343 345 346 347 351 350 350 351 353 360 361 360 359 355 357 358 354 354 352 352 352 351 351 352 353 354 356 357 358 359 359 358 356 354 353 352 350 348 348 343 340 342 341 342 342 343 344 343 346 348 349 350 350 352 354 353 355 354 354 355 354 353 352 352 353 352 351 353 354 353 352 351 350 350 350 349 349 349 350 350 350 350 350 351 353 353 354 357 360 359 358 356 355 355 354
340 342 345 345 346 347 348 349 351 353 355 359 360 359 357 352 354 355 351 352 351 349 352 352 352 352 351 353 355 357 357 358 357 358 358 356 354 354 350 347 349 344 340 343 340 340 343 342 344 344 346 348 348 349 351 352 354 354 355 355 354 355 355 354 353 353 353 351 351 353 356 356 355 353 350 349 349 348 348 349 349 348 349 351 351 352 353 352 352 355 358 358 356 355 355 354 353
341 345 348 346 347 347 348 350 352 356 355 355 359 356 355 356 353 351 350 351 351 348 350 351 351 352 351 352 355 357 358 358 357 357 359 358 353 353 350 346 350 346 342 347 343 339 342 341 344 345 346 348 347 348 352 352 354 354 354 355 355 354 355 355 355 354 352 350 350 353 357 358 357 355 351 349 348 348 350 350 348 347 349 352 352 351 353 352 350 352 355 356 355 353 353 353 352
344 346 347 347 346 345 349 350 351 355 355 358 359 346 348 362 355 348 351 349 350 349 349 349 350 352 351 353 355 356 358 357 358 358 358 356 350 351 350 347 350 347 345 349 345 342 344 343 346 346 345 348 348 347 351 353 353 354 354 354 354 354 355 355 354 352 351 350 349 352 355 357 357 356 352 350 350 351 352 349 347 349 351 353 352 352 354 353 350 352 355 355 352 350 350 352 352
345 343 344 345 334 336 346 348 350 355 353 358 357 340 345 363 356 346 350 348 351 352 349 350 350 352 353 354 355 356 358 357 357 358 357 354 349 351 352 350 351 349 348 349 347 347 348 347 347 347 346 349 351 349 351 354 354 354 354 354 353 353 354 353 353 351 349 349 348 350 353 355 356 355 354 352 353 355 352 348 348 351 352 354 353 352 352 352 352 353 353 351 349 350 351 352 351
345 335 331 336 328 333 348 347 349 352 350 355 354 341 346 358 353 346 349 347 351 353 352 352 350 353 354 354 355 356 357 356 357 356 355 353 351 353 354 353 352 351 351 349 348 350 351 351 351 350 350 350 352 352 352 353 354 355 355 354 353 354 354 353 352 350 349 349 349 350 352 355 355 355 354 355 358 357 352 349 351 351 352 355 354 350 348 350 352 352 351 348 349 353 354 353 353
340 334 323 325 324 330 343 346 349 348 349 353 351 346 348 351 348 348 352 350 350 353 356 356 352 354 354 355 355 356 357 358 357 356 355 354 354 354 354 354 354 353 354 351 351 353 352 353 353 353 354 353 353 353 354 354 355 355 355 355 355 354 354 353 352 351 350 350 350 350 352 354 356 356 357 359 360 359 355 354 354 351 352 356 353 348 348 351 352 349 349 348 349 353 353 354 353
326 329 322 323 327 329 333 342 346 343 347 351 351 350 348 348 347 348 351 352 351 353 358 358 358 358 357 355 355 355 357 358 358 358 357 356 356 356 354 355 356 355 355 354 354 354 354 355 354 355 357 356 356 355 355 356 357 357 357 356 356 356 356 355 354 353 352 351 350 348 352 357 358 359 359 361 361 359 358 356 355 353 354 355 350 349 352 353 351 348 349 348 348 350 353 355 351
319 320 318 321 329 329 330 338 343 344 349 350 350 352 350 348 349 349 347 351 353 352 358 358 360 361 359 358 361 362 357 356 357 358 359 358 358 359 357 356 356 356 356 356 356 355 355 356 357 358 359 359 359 359 358 358 358 358 359 358 357 356 356 356 355 355 354 351 350 349 351 354 356 358 357 357 359 360 360 358 355 355 356 355 351 351 353 352 350 351 352 350 348 352 354 352 348
326 324 321 320 323 327 334 342 341 347 356 355 351 350 350 349 351 351 347 348 352 352 357 360 359 361 359 358 364 365 359 358 359 357 358 359 359 359 359 359 358 356 356 357 356 357 357 357 358 358 357 359 360 362 363 362 360 360 360 360 360 358 357 359 358 357 355 353 352 351 351 351 353 355 356 357 358 360 362 358 355 356 356 354 353 352 352 350 351 352 354 351 351 355 354 349 347
331 328 326 323 324 330 341 345 342 346 351 350 351 350 349 351 351 351 349 348 350 354 362 363 358 359 361 359 360 360 360 361 361 360 358 358 358 360 360 360 359 358 357 359 358 358 358 355 354 355 356 359 359 361 364 364 363 363 362 360 361 361 361 362 360 359 357 355 354 355 355 353 354 357 359 357 358 361 361 356 354 356 356 354 353 351 348 348 351 352 352 352 353 355 350 345 346
333 327 324 321 322 332 343 345 344 345 345 346 351 350 349 353 352 351 351 349 348 352 360 363 357 358 361 360 358 358 361 361 360 360 360 360 361 362 362 361 360 360 359 359 359 358 356 355 354 356 358 359 359 361 363 363 364 363 361 361 360 360 362 360 359 358 358 357 357 359 361 359 358 360 360 358 358 361 360 355 354 356 355 353 350 347 345 346 350 351 350 350 353 352 349 346 347
332 327 322 319 321 330 335 341 346 341 342 346 349 344 347 354 353 352 350 350 351 351 357 360 358 360 360 360 360 360 361 361 362 361 360 361 362 361 362 362 360 360 360 360 357 354 356 357 356 357 359 358 359 361 362 362 363 362 360 362 360 358 359 360 359 360 359 359 359 360 362 361 360 360 359 359 359 359 359 357 357 357 354 350 346 344 345 345 349 350 349 350 353 353 352 350 350
331 328 319 317 324 326 322 332 344 339 338 344 345 342 347 353 353 352 349 349 353 352 356 360 359 359 358 359 360 360 359 362 365 363 361 362 360 360 362 361 358 358 360 358 354 354 356 357 357 357 359 358 359 361 363 363 363 362 361 361 360 357 358 360 360 359 357 358 358 358 359 359 359 357 357 359 359 358 358 358 358 356 351 346 345 345 345 347 350 351 350 352 354 354 353 351 350
329 330 323 319 326 328 324 332 340 337 336 341 341 332 335 347 349 349 350 351 354 355 357 358 359 359 357 358 359 359 361 363 364 363 363 364 362 363 362 358 357 357 357 356 355 356 357 357 357 357 358 358 360 363 364 365 364 362 360 358 357 355 355 356 356 355 355 356 356 357 358 357 357 356 355 357 358 355 354 357 356 352 348 346 345 345 347 350 352 352 351 352 352 353 353 351 350
323 329 329 327 329 331 331 336 333 324 324 334 335 321 322 338 343 345 350 351 354 357 358 358 361 362 359 360 358 358 362 361 361 362 362 365 364 365 362 360 362 358 357 358 357 358 358 358 359 359 360 361 363 364 364 364 362 359 355 353 350 351 353 355 354 354 355 355 355 355 355 355 355 355 356 357 357 353 353 355 352 348 347 346 345 346 350 351 351 351 351 351 351 352 352 352 350
317 325 332 332 332 332 331 332 325 315 316 332 335 322 318 329 336 344 348 348 355 358 356 356 362 363 360 361 359 357 360 360 360 361 362 365 365 364 364 363 365 361 357 359 358 358 359 360 361 361 362 364 363 362 362 361 359 356 354 351 349 351 355 358 357 356 356 355 354 355 354 354 354 355 355 356 355 353 353 352 350 348 347 347 348 350 352 351 349 351 351 351 351 350 351 351 349
318 327 332 332 331 332 332 329 322 319 322 330 332 327 321 322 331 344 346 345 357 360 357 356 357 357 357 360 360 358 359 358 360 361 362 365 365 365 365 363 362 359 357 359 358 359 360 360 362 362 362 363 361 360 360 360 359 358 356 354 353 356 358 359 357 355 355 356 356 355 354 353 354 355 355 354 354 352 351 350 350 350 349 350 351 350 351 350 348 349 350 350 351 349 350 349 345
325 331 331 331 331 332 332 327 321 322 322 317 322 327 323 320 329 342 346 343 349 356 356 355 353 352 353 356 357 357 358 357 359 362 362 365 365 365 365 362 359 357 358 359 357 358 360 359 360 360 360 361 360 360 360 360 360 359 358 357 357 358 358 358 357 356 356 357 356 355 353 352 352 353 353 353 352 350 350 350 350 351 351 351 350 349 349 348 347 347 347 348 348 348 347 346 344
330 331 331 331 332 331 331 328 320 319 317 312 317 323 320 319 324 332 338 337 342 351 352 351 351 350 351 355 356 356 356 356 358 361 362 364 364 364 364 362 359 358 357 357 356 357 359 359 359 359 359 359 359 359 359 359 359 358 358 357 358 358 359 359 358 358 358 357 356 355 353 352 351 350 350 350 351 350 351 351 351 352 352 350 347 347 347 345 345 345 343 345 346 346 345 343 343
331 331 331 329 330 331 329 326 320 314 313 313 318 322 321 319 322 327 333 337 342 349 350 349 349 350 351 353 355 356 357 357 357 359 361 364 364 364 364 362 362 359 356 355 357 358 357 358 359 359 358 358 358 358 357 357 357 358 358 358 357 357 358 359 359 360 359 357 356 355 354 352 351 350 349 350 351 351 351 352 352 350 349 348 348 347 346 345 344 344 344 345 345 344 342 339 339
331 331 328 321 321 323 319 317 316 313 312 315 319 324 322 317 321 330 338 341 343 345 347 348 347 350 354 353 351 354 357 358 358 359 361 363 363 363 363 362 362 361 358 357 357 357 357 358 358 358 357 357 357 357 357 356 356 357 357 357 357 358 359 360 359 359 358 357 356 355 354 353 352 351 351 351 351 351 352 352 352 350 347 349 349 345 345 345 345 344 344 343 343 341 339 337 337
332 328 321 314 312 314 312 312 312 311 313 318 321 323 321 319 326 337 343 341 341 344 345 346 346 349 353 353 351 349 353 356 357 358 360 360 361 361 361 361 361 360 360 359 359 358 358 358 358 358 357 357 357 356 357 356 356 356 356 357 357 357 358 358 357 357 356 356 356 354 353 354 354 353 352 353 352 352 351 351 352 351 348 348 347 345 346 346 345 345 342 341 340 339 338 337 335
327 322 315 311 311 311 312 312 311 312 314 317 321 322 319 320 329 341 344 341 343 344 343 344 346 348 349 350 350 347 350 356 357 359 358 359 361 360 360 361 361 360 360 361 360 360 358 357 357 357 357 358 357 357 358 357 357 357 356 356 356 355 356 355 354 354 353 353 354 352 352 353 353 353 353 353 353 353 350 349 349 348 348 347 346 347 347 344 344 342 340 340 338 337 336 335 332
327 328 323 314 311 312 312 311 310 312 314 315 319 321 317 319 330 341 343 341 343 342 342 345 345 346 347 346 347 347 349 354 356 357 358 358 359 361 361 361 360 361 360 360 360 358 357 357 357 357 358 358 359 358 357 357 357 357 357 357 356 355 355 356 353 351 350 350 350 350 350 351 352 352 351 351 351 351 347 347 347 346 347 347 346 346 345 343 342 339 338 338 337 336 334 330 328
326 331 324 315 316 317 312 311 311 310 311 314 316 319 324 328 336 342 341 340 342 342 344 345 344 345 346 345 346 345 347 350 352 355 357 357 360 361 361 362 361 361 360 358 357 356 357 358 358 358 359 358 359 358 357 357 357 358 359 358 356 355 353 353 351 349 348 348 348 348 348 349 351 351 351 350 350 348 346 346 347 346 347 347 345 344 344 342 341 339 337 338 337 334 329 326 325
324 323 317 320 328 323 311 310 313 310 309 313 315 319 328 333 335 340 341 340 342 344 345 344 346 349 349 351 355 349 345 350 353 356 357 358 360 361 361 361 360 359 358 357 356 356 356 358 358 358 358 357 357 357 357 357 357 357 358 356 354 352 351 349 349 348 347 347 347 348 347 348 349 349 349 350 349 347 346 347 347 347 346 345 345 344 343 342 339 338 337 335 335 330 324 323 324
324 317 319 326 328 324 316 310 311 311 309 313 314 316 322 323 327 338 341 341 343 344 345 344 346 350 350 357 363 356 348 349 351 353 357 359 360 361 360 359 359 358 357 356 355 356 356 357 358 357 357 357 355 355 355 355 355 355 355 354 352 351 351 350 349 348 347 347 346 347 347 348 349 349 347 347 347 347 347 347 346 346 345 344 344 342 341 339 336 336 335 333 331 327 320 321 322
327 323 327 325 315 314 314 310 310 311 310 312 314 314 316 317 321 332 337 340 343 343 345 344 345 350 350 353 358 355 353 358 357 353 357 360 359 360 358 356 357 356 356 355 354 354 356 357 358 357 357 356 354 354 354 352 352 352 352 353 352 350 350 350 348 347 346 346 346 346 346 346 348 348 347 346 347 347 347 347 345 345 345 343 343 341 339 337 335 333 334 331 329 325 321 321 321
330 328 330 326 318 314 314 312 312 310 309 313 316 316 316 321 328 335 338 340 342 343 345 345 346 349 350 350 353 351 353 362 361 353 356 359 358 357 356 354 355 355 354 353 352 353 356 357 358 358 357 356 355 353 352 350 349 348 350 351 350 348 347 347 346 346 346 345 345 346 345 346 346 347 347 347 347 347 346 346 345 344 345 343 341 339 337 336 334 333 332 330 325 325 324 323 322
323 320 319 320 320 319 317 315 313 311 310 311 316 317 318 326 334 338 339 340 342 344 346 346 346 346 347 349 352 350 349 353 355 352 352 354 353 355 355 353 354 353 352 351 351 353 355 356 357 357 357 355 355 353 351 351 349 346 347 347 347 347 346 346 345 345 345 345 345 346 345 346 347 347 347 347 347 347 346 346 345 344 344 342 339 336 335 335 334 332 331 329 325 325 326 325 325
325 320 319 318 318 316 312 312 313 313 311 309 312 315 319 331 338 339 339 340 342 344 344 344 346 347 347 348 350 352 349 351 353 352 347 348 352 354 354 354 353 352 352 351 350 352 353 355 355 354 354 354 354 353 352 350 348 346 346 347 347 347 346 346 346 345 345 345 346 347 347 347 347 347 347 347 347 347 347 346 346 343 342 340 337 335 335 334 333 332 331 332 329 327 326 325 327
Wind_Speed
9 8 8 8 9 7 1 1 0 1 1 1 1 2 1 0 1 3 4 3 3 4 5 5 5 5 8 12 12 13 13 11 7 5 5 9 19 21 21 26 25 24 25 23 24 23 21 19 18 17 15 13 12 10 10 10 10 9 9 9 10 10 10 11 12 11 11 10 10 9 8 8 7 7 6 6 6 6 5 5 4 4 4 4 5 5 5 5 5 6 6 6 6 5 4 5 5
9 9 9 9 7 3 1 1 1 1 2 0 1 1 1 1 0 5 4 1 4 6 5 5 7 8 12 14 12 14 15 15 14 11 10 19 22 21 23 24 24 25 24 24 24 22 21 19 18 17 15 14 13 11 10 10 9 9 9 9 9 9 10 12 12 11 10 9 9 7 7 6 5 5 5 4 4 4 4 4 3 4 4 5 5 5 5 6 6 6 7 7 7 6 6 5 6
10 10 10 9 2 0 0 0 1 1 2 2 1 1 0 1 4 5 2 2 6 8 6 6 10 9 10 14 13 13 12 14 18 14 12 20 19 20 24 22 24 24 23 24 22 21 21 20 18 17 15 14 13 12 11 10 9 9 9 9 9 9 10 11 11 9 9 9 8 6 5 4 4 4 4 3 3 3 3 3 4 4 5 5 5 6 6 6 6 6 7 8 8 8 7 7 7
10 10 11 6 2 1 1 1 1 2 1 2 1 1 2 2 6 6 5 5 7 8 7 7 8 9 11 12 11 11 12 12 16 14 11 17 19 22 26 22 23 22 22 23 21 21 21 21 19 18 16 15 13 12 11 10 9 9 9 8 9 9 10 10 9 9 8 8 6 5 4 3 3 3 2 2 2 3 3 4 4 4 5 5 5 6 6 6 6 7 9 9 9 8 8 8 8
10 13 13 3 1 1 1 1 1 1 1 2 2 3 5 4 5 8 6 6 7 8 8 7 8 9 11 10 5 6 10 12 15 16 14 19 23 25 25 24 22 21 21 22 22 22 22 22 20 19 17 16 14 13 12 10 10 9 9 9 9 9 10 9 9 8 7 6 5 4 3 2 2 1 1 2 3 4 4 4 4 4 5 6 5 6 7 7 7 9 10 11 10 9 9 9 8
9 10 11 2 1 2 1 1 0 1 0 2 3 5 6 6 5 8 7 7 8 8 8 8 9 10 10 9 5 5 8 11 13 16 19 22 24 25 24 22 21 20 21 21 21 22 23 21 20 20 18 17 15 14 13 11 11 11 10 9 9 9 9 8 8 7 6 5 4 3 2 1 0 1 2 2 3 4 4 4 4 4 5 6 6 6 7 7 7 9 10 11 11 10 9 9 8
6 2 4 2 0 1 3 1 1 2 2 0 4 6 5 6 6 7 8 9 9 7 9 8 9 10 8 5 6 9 10 11 13 18 21 24 24 24 22 20 21 21 21 20 21 23 23 21 20 19 18 17 15 15 13 12 12 12 11 10 9 9 8 7 6 6 4 4 3 2 1 1 2 2 2 3 4 4 4 4 4 5 5 5 6 6 6 6 7 8 9 10 11 10 8 8 8
5 1 1 2 1 1 3 1 1 1 2 2 3 4 4 5 7 7 6 7 9 7 7 8 9 9 7 4 6 9 13 16 18 23 24 24 23 22 21 20 21 21 20 20 21 23 22 21 20 19 19 17 15 14 13 13 13 13 11 10 9 8 7 6 6 5 4 3 3 2 2 3 3 3 3 4 4 4 4 4 4 4 5 6 6 6 6 6 7 8 9 10 11 10 8 7 8
3 2 1 2 3 2 3 0 2 1 1 3 4 5 4 3 6 7 6 9 8 7 7 7 7 8 8 8 8 7 11 21 21 24 23 22 21 20 21 19 20 21 20 20 22 23 21 20 20 20 19 17 16 15 14 14 13 12 11 10 9 8 8 6 6 5 4 4 3 3 4 4 3 4 4 4 4 4 4 4 4 3 4 6 6 6 7 7 8 8 8 10 10 10 8 8 8
1 1 1 2 4 2 3 1 2 1 2 4 6 8 6 4 6 8 9 7 2 4 8 8 9 9 9 8 7 4 3 19 21 22 22 20 19 19 20 18 19 21 21 21 22 23 21 21 20 20 19 18 17 16 15 14 13 12 10 10 9 8 8 7 6 5 4 4 5 4 5 4 5 5 5 5 4 5 5 4 4 3 4 5 5 7 8 8 9 9 8 8 9 10 10 10 9
2 2 1 2 5 3 2 1 3 2 3 3 6 7 4 6 9 8 9 7 1 5 7 5 8 9 9 6 5 3 4 15 20 21 21 19 18 19 20 18 19 20 21 22 21 22 22 21 19 19 19 17 16 15 14 13 12 11 10 10 9 8 7 7 6 6 6 6 6 6 6 6 6 6 5 5 5 5 4 4 4 4 5 5 5 8 8 9 10 10 9 9 9 10 11 12 11
3 2 1 2 5 4 1 0 4 4 5 4 5 4 5 9 9 6 8 7 5 8 7 5 4 4 8 5 3 1 6 16 18 19 19 17 17 18 19 19 19 19 21 21 20 21 22 21 20 19 18 17 15 14 13 12 11 11 10 10 9 9 8 7 7 7 7 6 7 7 7 7 7 6 6 6 5 5 4 4 5 5 5 5 6 9 9 9 10 10 11 10 11 12 12 13 12
3 0 1 2 4 3 2 1 4 3 4 3 4 5 7 8 6 5 7 7 6 7 6 7 4 3 5 4 4 3 5 14 16 18 18 17 17 16 18 18 20 20 21 21 20 21 21 20 20 19 18 16 15 13 12 11 11 11 10 10 10 9 8 8 7 7 7 7 7 7 7 7 7 7 6 6 5 5 5 5 5 5 5 6 7 9 9 9 10 11 11 12 12 13 14 14 13
2 0 2 3 3 3 1 0 3 2 4 3 5 7 5 3 3 4 5 6 6 4 3 4 4 5 4 2 4 2 3 14 17 16 16 16 16 16 17 17 20 21 20 20 20 20 19 19 18 18 17 16 15 13 12 11 11 11 10 10 10 9 9 8 7 7 7 7 7 7 7 7 7 7 7 6 5 5 5 5 6 6 6 7 8 10 10 10 10 11 12 13 14 15 15 15 14
2 1 1 3 5 4 3 2 2 3 3 4 6 7 6 4 5 5 5 5 3 2 2 2 1 2 3 3 4 3 7 15 16 15 16 16 15 16 16 16 19 19 17 18 19 19 18 17 17 17 17 16 15 14 13 12 12 11 10 11 10 10 9 8 7 7 7 7 8 8 8 7 7 7 6 5 5 4 5 5 6 7 7 8 9 10 11 11 11 13 14 14 15 15 15 14 14
3 3 0 3 6 7 5 4 4 5 2 4 6 6 8 6 5 5 4 3 3 1 2 3 2 1 3 3 7 9 10 16 15 14 16 15 15 15 15 15 17 17 15 16 17 17 17 17 17 17 16 15 15 14 13 12 12 11 11 11 10 9 9 9 9 8 8 8 8 8 8 7 7 7 7 6 4 3 4 5 7 7 7 8 10 11 11 12 12 13 15 15 15 15 15 15 14
2 1 1 3 7 7 8 6 4 6 6 6 4 4 9 8 5 5 3 4 5 3 5 3 4 1 2 2 9 14 13 16 14 14 15 14 14 13 13 13 14 15 14 14 15 16 15 15 16 16 15 15 15 15 14 12 12 11 11 11 10 10 10 10 10 10 9 8 7 6 7 7 7 7 8 7 5 5 5 5 6 7 8 8 9 10 11 12 12 13 14 14 14 14 15 15 14
2 2 3 5 7 6 7 8 7 8 8 7 4 3 7 9 7 5 4 6 6 6 7 3 3 4 3 4 12 14 14 15 13 14 14 13 13 12 12 11 12 12 13 13 13 14 15 15 14 14 14 16 16 14 14 14 12 12 12 11 11 11 11 11 11 10 9 8 7 6 7 7 8 7 7 8 8 8 7 7 7 7 7 7 8 9 9 11 12 12 13 12 12 13 15 15 14
1 2 6 6 5 5 8 10 10 8 9 8 6 5 6 9 6 4 6 7 7 7 6 3 5 7 6 10 14 14 14 14 13 14 13 12 12 12 12 11 11 11 12 12 13 14 13 14 13 12 14 16 15 13 13 13 12 12 12 12 11 11 11 11 11 10 10 9 9 8 8 9 10 9 7 7 8 9 8 9 10 8 7 7 8 9 9 10 12 12 12 11 11 12 13 14 14
3 5 5 5 8 8 10 13 11 9 10 9 8 7 7 7 4 3 8 10 7 6 3 2 6 8 8 11 13 14 14 12 13 13 12 11 10 12 12 12 12 12 12 12 13 14 13 13 12 12 13 14 14 13 12 12 12 12 12 13 12 12 12 12 12 12 12 11 10 10 9 9 10 9 9 8 8 8 10 11 12 11 10 9 9 10 10 10 11 11 10 9 10 10 13 14 14
6 6 4 6 10 9 12 14 12 10 9 9 8 9 8 5 4 5 7 8 6 5 5 6 9 10 10 12 12 12 12 12 12 11 10 9 9 11 11 12 12 12 13 13 13 14 14 13 12 13 13 13 13 12 12 12 12 12 13 13 12 13 13 13 13 12 12 11 10 10 9 9 10 9 10 11 10 8 10 11 12 13 13 11 8 9 9 9 9 9 8 8 9 11 14 15 15
3 6 9 10 10 9 12 13 13 12 8 8 8 8 8 6 5 6 7 5 5 6 7 9 10 11 11 12 12 12 11 11 11 9 9 9 8 9 10 11 11 12 12 12 12 13 14 13 13 13 13 13 12 11 11 12 12 11 13 13 11 12 13 12 12 11 11 11 11 10 9 10 11 10 10 11 10 8 10 10 10 11 11 10 7 6 6 7 7 7 7 6 8 11 13 14 13
2 7 11 10 10 10 11 11 13 13 7 5 6 7 8 7 6 4 7 6 5 7 9 11 12 12 12 12 11 11 11 10 11 10 9 10 8 7 9 11 11 11 11 11 10 11 13 12 13 13 12 12 12 11 9 10 11 10 11 11 11 11 11 11 11 11 11 11 11 10 11 11 10 11 9 9 10 8 9 10 10 9 8 8 6 4 5 6 6 7 6 5 8 10 11 13 13
6 8 9 11 12 12 11 11 11 12 10 7 6 7 7 8 5 3 7 8 6 8 11 13 14 15 14 12 12 11 11 10 11 11 9 10 8 6 6 8 10 11 10 11 11 11 12 12 12 12 12 12 12 11 9 9 10 10 9 9 10 10 9 10 10 10 11 12 11 11 11 11 10 10 7 8 12 8 7 8 7 6 6 6 4 1 5 5 6 7 5 6 10 10 10 12 12
9 8 8 10 11 11 10 8 9 9 11 10 8 8 4 6 7 5 7 8 8 9 11 13 13 14 13 12 12 11 11 10 11 11 10 10 8 5 3 5 10 13 10 11 12 12 12 13 13 12 13 12 12 11 10 10 9 9 9 9 9 10 9 9 9 9 11 11 11 12 11 10 9 8 6 8 10 6 5 5 4 4 4 4 3 1 4 5 6 6 5 8 10 9 10 11 10
8 9 9 9 9 10 8 7 9 8 8 7 6 7 5 7 8 6 8 8 8 10 11 13 12 12 12 11 11 10 10 9 11 11 11 11 9 7 7 8 9 10 12 11 11 12 12 13 13 13 13 12 11 11 10 10 9 8 8 8 8 9 10 10 10 9 9 10 11 12 11 10 9 7 7 7 6 5 5 5 4 5 4 5 3 3 5 7 7 6 7 8 8 8 10 10 10
9 9 8 9 8 8 7 8 9 6 8 8 3 5 8 10 7 4 9 10 9 11 11 11 12 11 10 11 10 9 10 10 11 12 11 12 11 10 10 11 11 5 12 12 11 11 12 14 14 13 13 12 11 10 10 9 9 8 8 8 8 9 9 10 10 10 10 10 10 11 11 10 9 8 8 7 5 5 5 5 5 5 5 6 5 6 8 10 9 7 6 7 7 9 10 10 12
8 5 5 7 5 7 7 7 8 5 7 8 1 2 6 8 5 6 11 11 11 11 11 11 11 10 10 11 10 8 9 11 12 12 11 11 12 11 11 11 9 4 8 8 11 11 10 12 13 13 13 13 11 9 10 9 8 8 8 8 9 9 9 9 10 10 10 10 8 8 9 8 9 8 8 7 6 6 5 5 7 6 5 4 5 7 8 12 12 9 7 8 9 10 11 11 12
9 3 3 5 3 6 7 7 8 6 5 6 5 3 4 4 1 9 13 12 12 11 10 10 10 10 11 11 10 8 9 11 12 12 12 11 13 12 11 11 6 6 6 1 8 11 10 10 11 12 11 13 11 9 9 9 9 9 9 9 9 9 9 10 10 10 11 11 9 7 7 7 8 8 8 7 6 7 6 7 8 6 4 2 4 6 6 11 14 11 10 11 12 12 11 10 10
9 3 1 1 1 5 8 9 8 7 5 6 4 3 5 3 4 10 15 13 12 10 9 10 9 10 11 11 10 9 10 11 12 12 12 12 12 12 11 10 7 7 6 2 5 8 8 8 10 10 8 10 11 9 7 8 8 9 9 9 9 9 9 10 10 10 10 10 9 9 9 8 8 8 8 8 6 6 7 8 7 5 3 1 4 6 6 11 12 9 9 12 14 13 10 10 11
6 4 2 3 1 6 8 10 7 6 7 5 2 3 7 7 9 10 14 13 12 9 9 10 9 8 10 10 10 10 10 11 13 13 14 13 11 12 11 10 9 9 7 8 8 4 6 8 9 9 7 7 10 8 7 7 7 7 8 7 9 9 9 9 10 10 10 10 10 12 13 12 10 9 8 8 7 7 8 8 6 6 4 4 5 6 7 9 9 9 12 14 13 11 11 11 11
3 2 3 5 3 8 7 9 5 5 8 4 2 3 4 5 5 7 11 10 9 8 8 8 9 9 9 10 9 9 9 11 13 13 14 14 11 12 12 11 11 11 7 10 9 4 6 8 7 8 8 7 7 8 7 7 6 6 6 6 7 7 8 8 9 10 10 10 9 9 10 11 10 9 9 8 7 7 9 8 6 7 7 5 4 5 8 9 8 10 15 15 12 10 11 12 12
4 6 6 4 4 7 6 9 5 5 8 4 1 3 2 4 3 4 10 10 6 6 7 5 7 8 8 9 8 8 8 8 10 11 13 14 11 11 12 12 12 10 7 9 8 5 5 8 8 8 8 7 6 7 7 6 6 6 6 7 7 6 7 7 9 9 9 9 8 8 7 8 10 8 7 8 7 7 9 8 6 8 7 4 4 6 8 7 8 11 15 15 11 9 10 11 12
6 5 5 4 8 7 6 8 6 5 7 5 2 3 4 5 2 2 8 13 10 5 10 8 7 3 4 6 6 6 8 8 7 9 11 12 11 10 11 12 12 11 9 7 8 7 7 6 6 6 7 7 5 5 6 6 6 6 6 7 7 7 7 8 9 9 9 9 9 9 6 4 8 9 8 9 10 10 9 7 6 7 5 4 4 5 6 7 9 12 14 14 10 9 9 10 12
6 4 1 5 10 7 7 9 7 6 7 7 4 3 3 2 1 2 2 8 7 3 8 6 2 2 3 1 3 2 6 9 9 11 13 11 11 11 10 11 12 12 10 9 9 8 7 6 5 5 4 4 4 4 4 5 6 6 6 6 7 8 8 8 8 8 9 10 11 10 7 6 9 11 13 14 14 12 11 9 7 5 4 3 3 4 4 7 9 11 12 11 9 8 8 10 12
6 6 7 5 10 4 8 11 10 9 6 5 3 2 1 1 1 1 3 2 2 3 5 3 3 4 2 4 4 2 5 6 7 11 13 13 12 10 10 11 10 10 12 12 10 8 7 4 0 2 2 1 2 4 4 4 5 5 6 8 9 9 8 7 8 9 11 13 13 12 12 13 14 15 15 16 15 13 12 10 8 6 3 1 2 4 5 6 9 9 9 9 9 8 8 10 10
5 8 7 8 10 6 10 11 10 9 4 5 6 3 2 2 1 1 2 2 1 4 5 5 4 3 4 4 3 3 5 5 4 3 7 11 11 10 10 9 8 10 12 10 9 8 3 4 5 2 2 4 4 4 5 5 5 6 6 8 10 10 10 11 12 12 13 14 14 12 12 14 17 18 16 15 15 13 12 11 9 6 3 3 4 4 5 6 8 9 8 7 7 8 9 10 9
6 9 5 6 8 9 14 14 13 12 5 6 9 6 4 4 4 4 4 3 1 4 4 5 8 8 3 3 4 4 4 5 4 1 3 6 7 8 8 8 9 10 9 9 7 4 5 1 5 8 8 9 8 7 7 5 5 7 6 7 8 9 11 11 11 12 13 15 15 12 10 13 15 17 15 14 13 10 11 11 9 6 6 7 6 5 7 7 8 9 8 5 5 8 10 10 9
7 6 3 1 3 9 12 12 14 10 4 9 10 5 4 4 4 6 5 0 5 7 6 5 8 11 6 6 2 3 3 4 6 6 4 4 4 6 6 6 7 9 9 6 4 7 2 10 12 9 8 9 10 9 7 5 5 6 6 6 7 9 11 10 9 11 14 16 16 14 13 12 11 12 12 12 11 10 11 9 8 8 8 7 6 7 10 8 8 9 6 4 5 8 10 10 11
7 6 4 4 4 9 6 3 9 4 1 10 9 4 4 4 5 5 3 2 5 7 8 7 7 10 9 8 5 4 4 5 7 7 6 6 6 6 5 4 6 9 9 2 9 3 12 13 9 9 11 10 7 6 4 3 3 4 6 6 7 9 12 12 11 13 15 16 17 16 13 10 9 10 12 12 12 12 11 8 7 8 8 6 7 9 8 6 6 5 3 4 5 7 9 11 12
6 6 3 5 4 9 6 4 6 1 2 9 8 4 4 4 5 4 2 1 4 7 7 7 8 9 9 9 8 5 4 4 5 6 5 6 7 6 5 6 6 6 2 6 5 9 12 9 8 8 9 7 5 3 1 2 4 5 5 6 8 10 12 13 12 11 10 11 12 12 11 10 11 12 13 14 13 11 9 8 7 7 6 6 8 7 6 5 4 3 3 3 4 7 9 12 13
3 3 2 2 5 5 5 5 3 1 0 6 5 1 2 3 4 5 5 3 4 7 6 7 9 8 7 8 8 5 5 5 4 5 5 5 6 5 4 5 5 1 6 5 8 8 6 6 6 4 5 4 3 2 2 3 4 5 5 6 7 10 14 13 11 10 8 8 8 8 9 9 10 11 12 13 12 9 7 8 8 6 7 8 7 6 5 3 1 1 2 3 4 6 8 12 12
1 2 4 1 3 3 1 4 2 2 1 4 2 3 3 4 5 4 5 4 5 7 4 7 9 6 5 6 6 4 5 6 4 5 5 5 5 5 5 4 2 5 5 6 7 5 4 4 2 3 3 2 1 3 2 2 3 2 2 2 6 11 12 9 8 8 7 7 7 7 6 5 6 7 7 8 10 8 6 7 7 6 8 7 5 4 3 1 1 1 2 4 5 5 6 10 11
1 5 9 6 4 5 4 5 5 2 4 6 3 4 4 2 4 5 6 3 5 8 6 8 8 5 4 6 6 4 3 4 3 5 6 5 5 5 5 3 2 5 4 6 5 3 3 4 3 4 4 3 3 2 1 1 1 1 0 4 8 9 8 6 7 6 5 6 6 5 5 4 4 4 4 6 8 6 4 5 6 6 6 5 3 1 1 1 1 1 2 3 4 6 6 7 10
4 9 9 7 6 6 5 6 5 2 3 2 3 7 5 2 1 2 6 6 5 7 7 9 9 5 4 6 7 5 3 3 1 2 4 5 5 6 5 5 6 8 3 2 5 4 5 7 5 5 5 3 2 2 2 2 3 2 1 1 3 3 3 4 4 4 4 5 5 5 4 4 3 2 3 4 4 3 3 3 4 4 3 2 0 3 4 2 0 1 3 3 5 7 7 7 11
6 9 8 6 5 7 6 5 5 2 2 1 5 9 4 2 1 1 5 7 7 7 7 8 8 7 5 7 10 6 3 3 2 1 2 5 6 6 6 6 7 10 5 1 4 7 7 7 6 6 5 4 4 4 5 5 5 4 3 3 3 1 0 1 2 3 4 5 5 4 4 4 4 2 1 1 1 1 2 2 2 1 0 2 4 3 2 2 2 3 5 6 7 9 10 11 12
8 7 8 7 7 7 4 3 4 3 2 3 9 12 6 5 4 4 5 7 8 7 7 7 6 7 7 8 10 7 3 2 1 1 1 4 7 5 6 7 8 12 12 7 6 8 8 7 8 7 6 8 6 6 7 6 6 6 6 6 6 5 4 3 4 5 5 6 5 4 4 5 5 5 4 4 3 2 1 2 3 4 5 4 3 3 3 3 6 7 7 7 7 10 12 13 13
8 6 7 7 5 4 2 4 4 2 1 5 12 13 9 6 4 6 8 10 10 8 8 8 6 7 8 8 8 8 6 4 2 1 0 5 8 7 8 8 9 12 15 14 11 8 8 8 10 9 7 8 7 7 7 6 7 7 7 8 8 7 6 5 6 7 6 6 6 6 5 5 5 6 6 4 4 4 3 5 6 5 6 5 3 6 8 9 9 7 7 7 7 10 13 13 14
7 6 5 5 4 2 2 3 2 2 0 7 13 11 8 5 5 9 10 11 11 10 9 8 7 9 9 8 7 8 8 6 1 2 3 5 6 8 9 9 9 10 11 14 15 12 10 10 10 9 8 8 7 8 8 7 8 8 8 9 9 9 8 7 8 8 7 6 6 7 6 6 6 6 7 6 6 7 6 7 7 5 6 6 6 8 10 10 8 7 9 10 10 11 13 14 15
7 6 4 3 4 3 2 3 2 1 2 9 12 9 6 4 6 10 10 10 11 12 11 9 9 9 8 8 8 8 8 7 5 5 5 5 5 7 9 9 9 9 10 12 13 13 13 12 11 10 10 9 8 8 8 9 9 8 9 9 10 10 10 10 10 9 9 8 8 9 9 9 8 8 9 8 7 7 7 8 8 7 6 6 7 7 8 8 7 8 10 12 12 13 13 14 15
7 4 3 3 4 3 2 2 2 1 3 8 8 6 5 5 7 9 11 9 8 10 11 9 9 8 7 8 8 6 6 5 4 4 4 4 6 7 8 9 9 9 10 11 12 12 12 12 11 11 10 9 9 9 9 9 10 9 10 10 10 10 10 11 11 10 10 10 10 12 13 13 11 9 9 9 8 7 7 9 8 7 7 7 8 7 8 8 7 8 11 11 12 14 15 15 14
3 1 3 4 1 2 4 4 4 4 1 5 6 6 6 7 7 9 10 8 7 9 9 9 9 7 8 8 6 5 5 3 2 2 3 4 5 7 8 8 9 9 10 11 11 12 11 11 11 11 10 10 10 10 10 10 10 10 10 10 10 10 10 10 10 11 10 11 12 13 14 13 12 10 8 6 7 7 8 9 7 6 7 8 9 9 9 8 8 9 9 10 12 15 16 15 14
1 1 4 2 3 3 6 5 3 4 2 4 7 7 8 7 5 8 10 7 8 11 9 9 9 9 9 7 5 5 4 4 2 0 2 3 4 6 7 7 8 9 9 10 11 11 11 11 10 10 10 10 10 10 10 11 10 10 10 10 10 10 10 10 10 10 10 12 13 12 12 12 12 11 8 6 7 8 8 7 8 8 8 8 8 9 9 8 11 11 10 11 13 15 16 16 14
5 2 6 6 2 1 4 3 2 3 2 4 8 7 6 6 5 7 11 9 8 10 9 9 9 9 6 4 5 5 4 4 2 0 1 2 3 4 5 7 8 9 9 10 11 10 10 10 10 10 10 10 10 11 11 11 11 10 10 10 11 10 10 9 8 8 9 11 12 11 11 11 10 8 7 7 7 7 6 6 8 9 8 8 8 8 9 9 12 13 10 11 15 16 17 15 14
8 5 6 5 4 1 2 2 2 3 2 3 7 6 4 4 5 8 11 10 9 9 9 8 9 9 6 4 5 4 5 6 3 2 1 2 4 4 5 7 8 9 10 10 10 10 10 10 9 10 10 10 10 9 10 11 10 10 10 10 10 10 9 7 7 8 10 11 12 11 11 10 9 8 9 8 6 6 7 7 9 9 8 8 8 7 8 9 12 13 11 12 16 17 17 14 13
8 7 5 5 3 2 1 2 1 2 2 2 6 7 5 4 5 9 10 10 9 9 8 8 8 10 8 6 7 6 6 3 3 1 1 4 4 5 5 8 8 8 10 10 10 11 10 9 8 9 10 9 9 9 9 10 9 9 10 10 9 9 9 9 9 10 11 12 12 12 12 11 10 10 10 10 9 9 9 9 9 9 8 8 8 8 10 11 12 13 11 13 16 16 14 13 13
8 7 5 6 4 2 1 3 3 3 4 1 5 5 4 3 4 9 13 11 10 9 8 7 8 10 9 8 7 6 8 6 2 3 4 5 6 6 6 8 8 8 9 10 10 10 9 9 8 8 10 10 10 10 10 10 9 10 12 12 11 10 10 10 10 11 12 13 13 12 11 10 10 11 11 10 10 9 10 9 9 9 9 8 9 11 12 12 12 12 11 12 15 15 13 12 11
9 6 5 7 6 4 3 4 4 3 5 3 4 5 5 3 4 9 13 10 9 10 9 7 8 10 9 9 9 6 7 9 4 8 7 7 8 8 8 8 8 8 8 10 10 9 9 9 7 8 9 10 10 10 10 9 10 13 15 13 12 11 11 11 11 12 13 12 12 12 11 10 10 10 10 10 10 9 9 9 9 9 9 9 10 11 11 11 11 11 10 11 14 15 13 13 11
Wind_Direction
240 234 230 232 246 265 294 153 261 171 189 298 228 262 225 113 252 141 130 162 108 75 69 72 53 53 70 61 62 64 50 44 62 96 96 126 136 138 134 133 135 134 135 137 139 137 136 138 133 131 131 131 128 126 122 120 120 118 119 116 118 118 118 129 130 127 127 125 121 115 103 95 90 88 83 78 73 68 60 51 43 36 22 12 4 357 345 334 341 339 336 333 326 327 322 321 318
226 224 227 227 242 272 16 121 282 188 172 225 214 263 320 327 20 113 116 128 105 99 93 89 57 48 70 68 65 65 59 62 77 90 109 131 132 129 133 135 135 135 135 136 138 136 140 144 139 136 135 135 132 129 125 122 121 120 122 119 119 116 117 126 129 130 131 128 120 110 99 95 92 85 81 78 70 59 45 35 23 13 356 347 341 331 326 324 332 333 329 324 318 317 314 303 298
219 223 226 217 220 35 36 258 234 233 176 192 215 260 258 169 113 110 153 138 112 111 105 84 54 39 71 74 63 68 76 80 92 100 116 131 128 129 134 134 134 135 134 135 137 137 143 147 144 140 139 139 135 131 131 128 124 123 124 122 122 120 124 129 129 132 132 126 118 110 108 107 96 84 78 69 53 35 18 8 357 349 335 329 327 319 318 319 329 337 333 328 321 316 310 296 285
228 236 237 207 138 147 165 223 227 295 195 169 192 196 184 172 130 137 188 156 125 116 99 81 64 48 63 65 58 74 90 92 104 110 119 129 131 134 135 134 134 133 134 136 137 140 146 148 146 141 141 141 136 134 135 135 130 127 127 128 129 129 133 134 133 133 130 124 118 115 119 116 97 81 67 41 15 355 348 339 335 331 319 321 322 314 319 324 333 345 340 330 320 311 305 297 291
238 247 254 232 70 250 190 230 227 293 205 184 174 147 161 180 144 134 153 139 120 109 94 88 86 74 65 58 48 76 100 110 114 113 118 128 132 132 133 137 136 134 135 135 136 142 147 148 147 143 143 141 137 139 140 140 139 136 134 135 134 132 133 136 138 134 130 127 124 124 125 118 94 66 29 355 336 330 327 323 318 314 318 326 321 316 326 334 341 349 341 329 317 309 306 304 305
235 253 259 224 47 307 254 256 62 216 249 230 162 131 156 173 157 131 122 112 108 99 85 87 95 95 82 64 61 69 93 110 111 114 121 128 131 130 133 137 134 133 133 133 135 143 147 147 148 144 144 142 140 143 144 145 146 144 141 139 136 133 134 137 140 137 136 136 136 137 141 148 269 310 317 319 318 317 315 312 306 309 323 329 321 324 333 337 342 347 338 325 315 308 305 304 304
228 267 265 227 357 293 261 347 98 223 50 19 135 126 151 157 158 134 115 108 108 84 59 82 99 99 82 52 69 70 82 98 107 117 123 127 129 129 132 133 130 131 130 130 134 142 147 146 147 146 145 144 145 146 146 146 145 144 144 142 139 139 141 143 145 145 148 152 159 169 196 233 270 287 304 311 308 307 309 309 303 308 327 334 325 330 337 335 337 335 327 319 311 305 299 299 300
239 261 281 299 323 262 276 24 94 254 73 79 100 135 163 147 145 132 122 106 108 89 58 88 94 89 86 73 75 62 85 99 107 116 122 126 129 131 130 130 128 128 128 128 135 142 143 143 145 145 145 145 147 146 144 144 142 144 146 147 148 151 152 157 162 164 170 177 196 213 242 261 275 288 300 299 297 299 301 299 297 308 326 335 327 331 337 326 321 317 315 315 310 306 299 297 300
270 306 282 308 299 307 307 58 105 327 110 135 127 154 179 155 127 120 103 69 76 90 71 81 83 94 100 87 67 27 84 104 111 118 122 126 129 129 126 130 129 127 129 130 139 143 141 143 144 144 145 146 147 146 145 145 147 149 152 156 160 164 166 172 178 183 195 206 226 240 253 263 274 280 280 279 284 286 285 283 290 303 315 331 327 323 327 319 310 306 306 310 309 304 300 300 300
86 327 257 305 289 336 316 268 105 65 102 134 134 141 163 150 98 89 89 70 8 90 68 68 78 94 100 83 76 344 82 115 120 121 123 127 128 127 125 131 130 128 129 132 140 143 144 145 145 145 146 147 148 148 148 151 154 156 160 165 169 174 176 181 189 201 215 226 239 246 253 258 264 267 265 268 269 270 274 278 288 298 305 323 316 308 316 315 306 302 301 305 304 302 303 303 298
172 213 213 314 311 3 321 309 92 120 107 114 118 120 133 100 85 84 101 114 176 75 49 58 83 92 95 77 86 275 220 128 124 124 125 128 129 127 126 129 130 130 132 135 139 144 147 147 147 148 149 151 152 153 155 158 162 166 170 174 178 181 187 193 201 213 223 233 243 249 253 257 257 256 256 257 259 264 275 284 292 301 304 311 298 296 306 305 301 300 301 302 302 305 309 308 302
239 187 182 316 335 13 302 129 87 117 115 105 98 79 52 76 94 102 96 94 82 71 36 35 86 95 95 91 99 153 147 128 124 126 128 128 129 127 127 130 131 133 135 137 140 145 149 149 150 152 154 156 158 160 163 167 170 174 178 181 186 190 195 201 210 217 225 235 244 252 250 250 249 246 249 250 253 261 276 287 292 298 298 298 287 287 294 295 298 301 303 304 303 306 310 305 298
292 161 309 313 346 18 291 130 102 111 97 80 80 56 44 67 90 86 75 69 60 75 46 41 93 108 87 101 101 56 119 131 128 130 131 129 129 127 128 131 131 133 138 140 142 146 150 152 154 156 158 159 162 167 170 175 178 183 186 190 193 196 201 205 215 220 228 234 238 246 241 239 240 240 245 249 253 262 279 285 286 288 285 285 279 282 290 294 297 301 305 307 306 306 306 301 293
325 318 312 314 357 41 335 45 140 130 84 93 93 81 72 68 94 82 77 79 53 69 55 36 92 104 103 142 109 28 190 142 134 135 132 127 128 128 129 131 131 135 140 142 143 147 152 155 158 161 161 161 166 170 176 181 185 190 193 196 198 200 203 205 213 219 225 229 232 236 234 235 237 242 247 254 265 274 282 282 277 273 271 276 277 280 289 296 299 303 308 307 307 306 305 303 296
230 136 297 302 3 31 42 44 121 106 91 109 97 97 97 88 112 93 61 77 71 102 97 50 22 87 142 184 131 211 193 144 137 136 131 129 131 130 132 134 132 134 139 143 144 148 153 155 158 164 164 165 168 172 179 184 187 192 192 194 198 198 203 206 208 215 220 224 230 232 234 237 240 247 254 270 284 286 285 278 269 268 271 275 279 283 291 299 301 305 307 304 304 305 305 305 301
239 122 55 315 15 16 36 66 101 94 107 109 104 127 108 87 94 82 44 66 96 25 22 48 342 10 153 162 151 192 178 139 136 137 135 135 134 132 133 135 135 134 136 143 144 147 153 154 158 163 166 169 170 172 180 186 188 190 192 194 198 200 204 207 209 211 216 224 229 232 235 238 242 250 264 282 288 283 282 273 271 280 284 280 279 284 293 302 305 306 306 305 307 307 307 306 306
296 160 112 3 30 16 28 54 91 98 109 101 110 152 112 100 88 85 60 72 94 41 24 25 333 14 133 129 156 178 158 134 140 141 138 137 136 135 135 138 138 136 139 145 145 148 154 155 159 161 166 170 171 175 179 185 191 193 196 199 202 205 207 208 213 213 215 223 229 234 238 238 238 242 254 265 271 282 288 280 283 293 289 284 284 286 294 305 307 306 305 308 311 309 308 306 312
262 288 33 34 33 25 40 67 94 103 109 113 152 169 109 108 104 121 116 85 94 65 43 18 359 85 137 168 164 166 143 138 148 144 143 145 144 141 142 145 143 143 144 148 152 153 155 158 161 163 167 171 173 178 179 183 193 196 198 203 206 207 209 210 213 215 219 226 232 240 243 239 236 238 245 244 248 263 276 280 283 290 289 286 288 287 290 299 299 300 303 306 307 309 310 309 316
224 354 27 37 59 67 74 89 103 107 116 122 141 139 106 107 109 141 125 104 101 77 50 18 78 109 153 163 155 151 142 146 149 147 153 156 153 150 150 149 150 155 152 154 161 159 159 162 164 165 166 169 174 177 177 183 192 196 198 204 209 210 212 216 217 216 220 226 229 234 238 236 232 232 236 237 238 244 252 263 270 276 286 286 289 288 282 291 295 297 303 305 306 311 315 315 320
4 65 42 47 89 93 87 96 104 107 116 113 116 114 101 102 110 125 112 109 107 101 112 125 125 139 154 148 145 146 149 152 150 155 160 160 162 155 156 159 158 164 162 162 166 164 164 167 169 167 162 167 173 174 178 183 188 193 198 204 209 211 214 218 219 217 219 222 224 229 235 234 232 226 226 233 235 240 244 252 263 266 272 275 279 280 279 294 301 302 305 306 312 316 320 322 326
355 58 78 55 79 93 91 100 109 112 117 116 121 112 106 114 113 114 115 112 110 134 172 174 152 152 154 148 149 151 154 154 153 162 157 156 173 162 162 165 161 168 169 166 170 169 169 173 172 164 162 169 173 176 181 180 180 188 198 208 208 206 211 216 217 218 220 222 224 231 237 232 234 233 225 227 228 241 245 248 260 256 256 262 270 277 282 298 302 305 304 310 325 324 323 326 329
358 47 71 59 70 86 95 104 110 114 114 119 129 115 117 133 111 113 125 117 120 149 183 187 157 150 157 153 154 156 159 158 155 163 154 155 184 173 162 164 162 170 169 163 171 170 169 178 174 165 166 170 175 181 181 175 179 190 197 203 205 204 209 212 215 220 222 224 226 229 237 235 236 234 224 222 225 243 247 249 254 239 239 247 252 269 288 306 310 311 306 318 333 322 320 325 327
74 46 61 62 65 71 89 94 96 110 118 117 125 122 127 125 106 118 128 116 131 156 174 174 154 150 159 156 158 159 161 165 156 161 159 161 190 185 165 169 166 163 162 162 169 169 172 182 175 169 170 171 178 184 182 177 183 194 196 197 202 207 210 210 214 220 221 224 227 227 234 240 238 232 231 225 220 234 244 240 236 223 233 243 235 266 316 326 321 315 309 317 325 318 311 312 316
51 50 58 64 65 62 72 80 96 115 120 126 127 125 133 129 129 141 124 123 146 163 160 153 146 152 161 159 161 162 165 168 156 162 168 166 191 203 182 183 165 151 162 171 171 176 181 182 175 172 171 173 181 182 185 189 192 196 197 199 202 212 217 214 216 218 222 224 223 228 236 245 240 230 237 231 221 230 244 237 230 225 241 242 221 298 339 330 312 305 305 316 324 323 310 307 310
47 53 56 67 71 72 74 83 106 109 110 130 137 129 135 131 138 149 137 138 142 140 138 139 143 153 158 158 161 163 165 165 159 166 172 172 190 207 213 213 174 154 171 183 175 178 182 179 178 177 173 175 183 184 191 195 198 203 202 205 208 215 223 225 227 222 224 226 221 223 232 244 245 239 240 232 230 244 264 265 282 278 274 263 243 323 338 330 323 305 297 321 330 324 321 324 319
54 51 49 60 69 83 93 91 86 83 94 102 106 125 157 148 139 148 145 145 142 134 134 140 148 155 155 155 160 162 165 167 166 170 174 176 184 197 203 226 221 172 170 184 178 178 178 177 178 180 176 175 185 188 193 196 196 209 212 213 216 215 222 229 235 236 229 227 227 224 224 234 249 260 254 244 249 266 269 276 292 291 304 309 302 342 343 336 332 299 293 328 337 327 333 333 323
58 49 49 53 61 81 90 84 75 73 95 94 108 159 161 158 151 159 153 154 160 150 145 150 152 156 155 155 160 164 169 172 169 172 177 175 179 196 199 224 257 203 166 176 179 180 173 175 179 180 177 172 190 193 188 196 193 207 219 219 223 218 223 230 231 241 240 236 237 224 214 226 249 263 266 266 269 273 272 280 292 292 303 314 331 354 347 336 325 298 301 340 340 330 335 325 319
66 40 42 44 57 91 87 84 81 72 84 93 144 196 153 161 161 160 157 159 170 160 151 158 158 161 162 158 162 165 171 173 173 177 181 177 178 194 195 215 251 186 176 176 165 176 171 179 180 174 177 171 192 203 181 192 197 205 218 218 226 222 222 229 230 237 239 244 247 221 208 222 245 257 271 279 278 286 294 296 296 302 316 330 346 345 342 340 337 334 337 342 335 328 330 323 321
88 45 31 34 35 97 102 97 88 80 67 67 41 17 143 177 189 150 156 162 172 169 156 160 164 170 168 160 164 171 175 175 178 183 185 185 182 188 190 205 225 177 204 144 143 177 177 180 168 162 180 167 182 214 186 192 201 203 214 215 224 226 223 226 233 239 238 242 241 225 217 226 242 251 266 275 280 290 290 291 298 314 341 15 347 327 342 347 342 346 344 337 333 327 328 326 324
117 135 145 53 41 101 108 111 101 87 83 91 64 12 110 146 249 155 151 168 176 173 164 164 174 183 172 163 169 173 178 180 184 186 186 192 182 177 186 193 203 190 192 151 172 193 168 159 145 153 189 165 175 216 200 195 203 205 210 213 219 220 224 228 232 241 243 241 236 233 229 230 242 246 260 270 276 285 283 290 308 337 358 14 332 326 352 351 339 339 337 335 334 329 328 326 324
135 131 148 234 166 103 102 110 114 95 97 108 90 356 85 139 210 163 147 167 170 178 185 173 178 195 176 165 176 175 180 187 186 184 183 192 180 172 186 183 193 208 187 174 201 202 132 133 133 155 196 180 180 205 211 209 212 217 215 217 222 217 225 236 238 241 242 240 240 240 231 226 233 238 250 264 272 280 286 299 328 351 331 301 320 331 343 343 341 338 332 334 334 330 329 326 327
123 104 200 238 143 109 105 110 117 100 110 111 41 345 50 104 179 140 138 157 166 188 195 185 183 193 182 167 178 176 183 192 184 182 183 187 184 178 183 179 193 215 193 175 198 198 142 138 141 166 186 195 195 195 210 221 224 237 236 235 235 223 228 243 251 254 252 249 246 246 235 223 226 236 244 255 267 276 292 309 328 332 318 303 318 337 332 327 337 335 328 332 329 323 327 326 329
185 221 219 238 96 114 117 111 117 96 107 121 55 324 24 68 43 94 126 144 197 195 154 210 215 188 185 168 177 185 182 194 183 183 188 185 190 186 184 186 194 209 201 180 186 190 174 162 168 182 179 193 208 194 198 214 226 240 245 247 249 245 244 251 259 262 268 273 275 280 267 230 223 234 243 254 265 270 292 304 301 309 314 309 321 340 336 330 341 334 326 329 322 314 326 326 329
246 236 193 147 99 118 135 119 128 101 83 93 86 337 35 78 71 97 132 154 197 178 131 212 239 172 202 167 169 194 179 192 192 191 196 188 194 199 193 192 193 200 206 197 191 194 197 184 181 191 183 189 208 204 198 209 227 236 244 252 258 263 260 260 267 275 284 288 290 292 288 235 217 227 236 246 254 257 270 277 281 302 302 294 323 345 346 343 342 332 326 328 321 316 326 324 326
287 320 224 132 110 126 137 128 140 118 73 72 74 343 20 51 96 103 139 159 182 138 126 191 217 135 245 103 93 204 191 196 192 192 198 192 198 208 205 202 200 199 203 209 208 200 201 205 200 197 189 190 204 215 214 219 233 237 245 254 258 263 263 265 273 281 281 274 279 286 272 241 229 236 242 242 245 246 249 257 272 288 279 284 316 315 323 336 331 327 325 325 322 320 316 317 324
315 306 301 65 92 83 91 111 137 136 115 108 116 288 250 271 318 30 341 40 100 89 104 90 80 158 188 55 61 280 261 223 192 193 197 196 201 209 218 218 209 207 208 209 210 207 206 211 275 31 13 321 223 236 237 228 244 243 241 246 248 255 263 265 260 258 262 261 271 281 264 248 240 235 233 233 239 241 243 253 264 266 258 270 291 284 309 329 322 318 316 313 315 314 309 320 330
304 283 294 91 107 96 100 121 150 152 135 136 161 221 228 193 229 263 312 327 122 125 120 108 98 67 46 71 140 214 263 253 241 234 193 192 196 203 224 231 226 229 222 206 206 207 178 52 28 359 246 221 212 238 234 215 234 245 251 262 261 261 263 267 268 267 268 263 266 274 266 256 245 232 224 228 238 239 243 250 251 242 199 181 217 255 303 318 311 306 303 302 306 308 316 331 335
283 282 294 112 116 122 135 146 158 169 172 167 178 193 215 192 180 216 235 238 127 85 94 114 105 77 54 235 185 166 230 232 221 265 154 174 184 195 216 227 229 240 233 214 206 147 83 59 220 216 218 216 214 220 218 215 239 255 265 281 294 299 294 296 295 283 273 264 260 262 264 260 245 232 229 234 238 240 249 247 231 209 192 205 224 261 298 303 300 300 298 293 301 312 320 326 322
275 275 297 44 71 109 129 138 149 173 187 168 176 175 191 180 172 226 256 337 67 69 88 115 114 107 136 224 199 124 226 217 165 156 162 165 193 212 217 228 234 247 242 214 102 81 193 240 224 211 215 218 222 224 223 231 259 280 285 299 323 319 304 298 291 278 274 271 268 265 269 273 259 244 246 245 238 235 238 226 200 196 203 218 253 288 296 297 300 306 300 286 304 316 314 309 306
259 276 323 358 50 100 94 129 158 194 79 139 152 138 155 158 166 218 286 43 79 86 102 114 123 125 146 183 162 147 207 199 153 144 159 165 188 219 223 235 250 259 256 104 77 141 229 234 222 214 216 213 223 232 239 251 265 285 290 300 308 296 284 279 279 281 281 282 279 271 268 277 274 270 271 258 240 228 216 198 195 207 211 240 289 299 300 298 302 310 288 275 306 312 308 304 308
247 254 296 360 33 103 126 190 167 217 63 130 144 126 138 166 167 161 116 116 120 106 99 97 116 133 141 147 155 178 180 166 148 141 163 170 176 203 212 221 238 258 295 83 133 214 224 223 222 222 218 216 226 221 244 284 281 290 301 322 326 307 289 276 272 275 276 283 286 276 267 274 277 276 270 253 243 232 207 192 202 211 229 277 299 299 297 296 292 296 265 274 301 297 302 303 309
274 235 236 315 334 64 126 189 152 342 258 152 170 98 87 129 112 111 127 149 137 125 118 103 110 122 121 122 146 174 147 144 166 154 169 185 181 195 198 221 241 75 76 115 182 203 222 233 232 227 213 210 227 221 243 290 309 329 340 351 332 292 270 261 265 273 281 293 297 285 277 282 277 267 258 249 245 236 207 195 201 221 268 289 294 285 289 301 296 290 287 312 309 285 291 296 307
14 328 312 314 298 335 304 257 248 291 21 106 90 29 54 76 50 61 117 143 147 142 135 113 107 107 118 128 142 154 140 151 177 154 162 185 185 194 190 215 265 74 109 174 173 179 219 221 198 195 194 177 234 249 261 302 327 1 6 285 251 250 249 256 280 294 308 316 313 302 295 294 272 255 253 254 247 231 206 201 214 251 282 284 285 284 291 333 95 59 333 323 308 290 278 286 313
41 10 326 330 302 291 295 277 270 279 104 98 76 84 99 62 9 32 63 67 140 146 144 120 105 102 139 148 141 141 121 122 157 158 169 183 183 194 186 178 99 99 180 195 141 150 178 143 161 184 175 186 208 230 288 339 355 12 270 231 235 240 247 265 294 311 332 334 330 330 323 307 280 250 242 267 267 251 223 215 235 266 275 269 282 301 112 118 119 64 351 306 308 314 291 291 332
11 23 325 315 314 303 302 285 287 274 148 117 78 100 99 72 335 67 74 55 78 120 131 118 110 115 142 146 137 132 114 93 78 158 173 179 187 202 180 161 144 132 183 223 132 138 121 116 138 149 148 172 164 107 48 42 50 29 339 251 245 247 252 276 314 334 350 349 345 355 356 341 325 266 234 274 292 268 224 227 248 268 265 253 153 100 97 86 38 335 343 353 6 354 341 342 352
342 3 303 280 269 260 260 274 298 266 220 312 126 133 115 69 72 53 85 77 78 100 105 102 120 133 127 136 138 134 117 95 38 345 203 173 180 204 178 175 169 137 124 227 140 123 107 107 110 109 113 107 90 80 64 50 54 49 35 34 28 43 45 348 17 12 17 21 16 17 11 8 10 10 167 143 64 116 189 220 230 223 102 89 93 93 102 98 70 36 21 24 24 11 9 8 360
307 320 281 270 255 252 256 268 283 264 298 24 124 132 102 82 88 46 49 71 91 106 107 106 125 129 104 100 117 127 125 102 79 332 270 161 169 190 171 172 168 141 138 150 138 118 116 120 110 99 95 92 84 72 68 61 62 60 53 49 47 60 65 52 48 37 35 41 49 55 41 39 44 52 82 102 95 106 125 88 93 104 94 81 64 10 347 49 54 46 33 30 31 23 21 13 0
281 280 282 298 284 285 302 248 262 279 342 79 104 103 85 82 86 70 49 53 76 90 106 115 110 105 98 86 99 119 120 93 54 337 248 165 168 167 159 155 146 138 138 139 136 123 110 106 101 92 85 89 88 82 80 76 74 70 65 61 59 64 64 57 49 43 45 50 66 72 60 69 81 78 81 89 95 99 104 98 97 93 75 58 27 22 38 46 44 45 34 33 46 35 25 14 1
241 254 271 292 299 312 290 266 296 329 33 101 104 97 89 80 63 71 56 46 65 80 88 92 86 90 101 109 110 107 105 101 119 237 200 176 163 151 146 140 131 129 126 128 133 133 123 116 109 103 102 103 100 98 94 88 85 80 74 70 69 68 66 63 57 52 51 51 70 78 72 87 99 99 99 102 104 99 98 105 105 85 62 55 48 51 55 44 35 44 31 30 51 41 24 14 2
220 241 251 275 309 307 280 295 311 304 73 95 100 97 103 110 81 80 75 59 64 80 87 82 79 83 90 102 102 94 106 128 163 196 189 166 152 143 138 134 133 130 122 122 127 129 128 128 124 118 116 114 109 106 102 97 91 83 79 77 74 71 68 66 60 57 59 58 67 74 81 94 95 96 105 112 117 115 104 99 97 89 79 71 62 61 58 44 38 44 27 27 46 39 21 14 2
236 265 296 293 312 291 261 286 302 313 99 99 89 86 99 97 87 91 95 92 83 88 95 92 90 98 96 86 81 81 98 124 150 173 179 155 142 140 137 135 134 129 129 130 127 124 122 123 123 121 117 115 113 109 103 100 95 89 84 79 76 74 72 73 69 63 64 65 69 74 80 89 93 94 102 106 113 121 109 97 98 100 86 72 63 57 52 45 39 36 28 29 39 31 18 11 1
259 358 257 245 328 323 291 281 296 315 63 95 68 69 85 81 89 101 99 101 112 106 101 102 98 97 91 80 76 89 98 101 115 157 159 139 136 141 141 139 135 132 134 132 126 122 121 120 118 116 114 113 111 107 103 101 97 90 85 81 80 78 76 79 77 71 68 69 77 84 85 89 97 98 97 95 89 94 99 93 92 93 78 68 64 57 51 33 15 30 47 47 37 24 15 8 2
309 176 247 288 30 350 308 297 278 280 269 109 105 109 109 109 110 112 113 117 122 117 118 121 101 75 72 69 57 58 68 87 90 204 166 144 146 144 143 143 138 133 129 122 119 121 122 121 118 114 113 112 111 109 105 102 99 92 88 85 83 80 79 79 76 75 76 78 80 87 89 91 99 99 95 94 80 76 92 97 89 86 76 69 66 58 50 23 15 39 64 57 38 23 15 12 7
260 331 348 339 346 253 291 306 309 275 278 102 120 128 125 132 131 128 135 137 128 122 125 129 113 88 80 70 59 44 29 62 89 235 182 156 155 155 160 152 134 124 121 118 118 118 115 114 115 114 112 110 110 109 109 108 102 94 89 86 83 80 78 76 73 75 79 79 75 74 80 89 101 98 86 97 102 90 96 101 91 88 83 75 68 58 50 33 31 42 49 49 40 23 16 17 11
262 320 344 299 266 240 215 230 312 314 322 86 112 110 85 96 122 148 147 137 134 135 132 133 127 119 115 101 99 86 41 32 13 355 347 237 183 180 173 135 119 121 127 127 122 114 108 105 104 104 104 106 109 111 113 110 101 95 92 87 86 86 78 67 66 70 69 68 66 67 69 72 81 80 70 78 89 81 86 98 94 90 89 77 64 59 61 50 42 35 27 34 36 21 14 17 13
253 280 270 244 266 323 284 265 278 271 265 147 111 90 66 72 120 143 135 126 132 137 139 140 132 126 128 125 124 121 101 74 308 284 230 245 207 180 162 131 130 137 135 128 116 109 108 105 103 105 104 106 107 101 96 91 88 98 106 100 92 86 74 61 62 68 68 63 58 59 58 54 55 59 62 67 66 61 65 81 88 82 76 67 53 53 64 59 49 36 21 25 31 22 12 13 11
212 226 229 228 236 235 265 293 268 266 288 187 120 97 110 143 158 134 122 123 136 142 147 145 131 122 125 134 137 137 129 123 277 257 203 219 204 177 160 140 135 133 127 121 113 110 111 108 110 116 113 110 104 94 87 80 67 72 87 90 81 73 67 63 65 68 69 65 57 54 55 53 52 52 55 62 65 65 61 66 77 74 71 71 58 53 54 50 45 36 20 20 25 17 7 5 3
219 221 232 223 229 237 227 238 222 229 288 282 121 108 117 107 81 105 115 123 137 145 147 141 127 122 131 145 142 141 134 129 192 228 200 195 193 168 151 139 130 133 136 129 122 120 119 119 123 122 116 112 106 100 96 88 73 69 73 78 76 70 63 60 60 60 61 62 57 52 48 45 45 46 51 56 62 70 69 70 78 74 71 72 63 58 53 44 43 35 22 20 18 9 3 360 356